Regional Weather Roundup
Issued by NWS

Home | Current Version | Previous Version | Graphics & Text | Print | Product List | Glossary On
Versions: 1 2 3 4 5 6 7 8 9 10 11 12 13 14 15 16 17 18 19 20 21 22 23 24 25 26 27 28 29 30 31 32 33 34 35 36 37 38 39 40 41 42 43 44 45 46 47 48 49 50
000
ASUS43 KOAX 281210
RWRNE

WEATHER ROUNDUP FOR NEBRASKA
NATIONAL WEATHER SERVICE OMAHA NE
700 AM CDT SUN AUG 28 2016

NOTES: SATELLITE DATA IS BEING USED TO AUGMENT CLOUD COVER ABOVE
       12000 FEET.
       "FAIR" INDICATES FEW OR NO CLOUDS BELOW 12,000 FEET WITH NO
       SIGNIFICANT WEATHER AND/OR OBSTRUCTIONS TO VISIBILITY.

  * THESE STATIONS DO NOT REPORT WEATHER SUCH AS RAIN...SNOW OR FOG.

NEZ001>004-019>022-054>056-281300-
NEBRASKA PANHANDLE

CITY           SKY/WX    TMP DP  RH WIND       PRES   REMARKS
SCOTTSBLUFF    CLEAR     56  53  90 E6        30.07S
6HR MIN TEMP:  55; 6HR MAX TEMP:  64;

ALLIANCE       CLEAR     55  54  96 SE8       30.06S
6HR MIN TEMP:  53; 6HR MAX TEMP:  62;

CHADRON        LGT RAIN  61  49  64 SW6       29.98R
6HR MIN TEMP:  59; 6HR MAX TEMP:  73; 6HR PCP: TRACE;

SIDNEY         CLOUDY    54  51  90 W7        30.10S
6HR MIN TEMP:  53; 6HR MAX TEMP:  60;

$$

NEZ057>060-069>072-079>082-281300-
SOUTHWEST NEBRASKA

CITY           SKY/WX    TMP DP  RH WIND       PRES   REMARKS
NORTH PLATTE   CLEAR     62  61  96 E6        30.06S FOG
6HR MIN TEMP:  62; 6HR MAX TEMP:  68;

IMPERIAL       CLOUDY    60  59  96 S5        30.08S
6HR MIN TEMP:  59; 6HR MAX TEMP:  64;

LEXINGTON      CLOUDY    67  64  92 S6        30.06S
MCCOOK         CLOUDY    63  61  93 E6        30.07S FOG
6HR MIN TEMP:  63; 6HR MAX TEMP:  67;

OGALLALA       CLEAR     61  59  93 CALM      30.08R FOG
$$

NEZ005>010-023>029-035>040-094-281300-
NORTH CENTRAL NEBRASKA

CITY           SKY/WX    TMP DP  RH WIND       PRES   REMARKS
AINSWORTH      CLEAR     65  65 100 S10       30.03R
BROKEN BOW     PTCLDY    65  64  97 S6        30.06S
6HR MIN TEMP:  63; 6HR MAX TEMP:  68;

O`NEILL        CLEAR     67  65  93 SE7       30.04R
ORD            PTCLDY    62  60  93 CALM      30.04S FOG
6HR MIN TEMP:  61; 6HR MAX TEMP:  67;

THEDFORD       CLEAR     64  64  97 S5        30.05S
$$

NEZ041-046>049-061>064-073>077-083>087-281300-
SOUTH CENTRAL NEBRASKA

CITY           SKY/WX    TMP DP  RH WIND       PRES   REMARKS
GRAND ISLAND   CLOUDY    68  66  93 S7        30.07R
6HR MIN TEMP:  68; 6HR MAX TEMP:  71;

AURORA         MOCLDY    66  66 100 S5        30.07R
HASTINGS       MOCLDY    67  66  97 S7        30.08R
6HR MIN TEMP:  67; 6HR MAX TEMP:  71;

HEBRON         PTCLDY    67  66  96 CALM      30.08R
HOLDREGE       PTCLDY    65  64  94 S5        30.07S
KEARNEY *      CLOUDY    66  63  88 S6        30.06R
YORK           MOCLDY    66  64  94 S5        30.08R
$$

NEZ011>018-030>034-042>045-281300-
NORTHEAST NEBRASKA

CITY           SKY/WX    TMP DP  RH WIND       PRES   REMARKS
NORFOLK        CLEAR     67  64  90 S13       30.06R
6HR MIN TEMP:  65; 6HR MAX TEMP:  67;

ALBION         PTCLDY    65  62  92 SE6       30.07R FOG
BLAIR          CLEAR     68  66  94 SE5       30.09R
FREMONT        CLEAR     68  67  96 SE5       30.08R
TEKAMAH        PTCLDY    61  60  97 CALM      30.09R FOG
6HR MIN TEMP:  58; 6HR MAX TEMP:  63;

WAYNE          PTCLDY    66  65  96 S6        30.08R
$$

NEZ050>053-065>068-078-088>093-281300-
SOUTHEAST NEBRASKA

CITY           SKY/WX    TMP DP  RH WIND       PRES   REMARKS
LINCOLN        PTCLDY    64  62  93 CALM      30.08R
6HR MIN TEMP:  63; 6HR MAX TEMP:  68;

OMAHA EPPLEY   MOCLDY    69  65  86 SE5       30.09R
6HR MIN TEMP:  68; 6HR MAX TEMP:  72;

BEATRICE       CLEAR     68  67  94 CALM      30.08R
FALLS CITY     CLEAR     68  68 100 CALM      30.07S FOG
6HR MIN TEMP:  68; 6HR MAX TEMP:  70;

NEBRASKA CITY  PTCLDY    67  67 100 CALM      30.09R
PLATTSMOUTH    CLEAR     69  68  97 SE7       30.09R
$$

NEZ044-045-051>053-067-281300-
OMAHA AREA

CITY           SKY/WX    TMP DP  RH WIND       PRES   REMARKS
OMAHA EPPLEY   MOCLDY    69  65  86 SE5       30.09R
6HR MIN TEMP:  68; 6HR MAX TEMP:  72;

BLAIR          CLEAR     68  66  94 SE5       30.09R
FREMONT        CLEAR     68  67  96 SE5       30.08R
MILLARD        PTCLDY    67  66  96 CALM      30.09R
OFFUTT AFB     CLEAR     64  64 100 SE6       30.08R
PLATTSMOUTH    CLEAR     69  68  97 SE7       30.09R
WAHOO            N/A     63  62  96 E3        30.08R FOG
$$




USA.gov is the U.S. government's official web portal to all federal, state and local government web resources and services.